This demonstration page uses our WeatherBlox Daily Observations layout. Learn more.

Left ArrowRight Arrow

Hourly Observations for November 8, 2018

Temp ( °F °C ) Dew Point ( °F °C ) Humidity (%) Winds ( mph kmh ) Pressure ( in mb ) Visibility ( mi km ) Precip ( " mm )
12:53 am 00:53 Clear 11 -11.7 8 -13.3 88 88 WSW 7 11 30.47 1032 10 16 N/A
1:53 am 01:53 Clear 10 -12.2 8 -13.3 92 92 SW 20 31 30.45 1031 8 13 N/A
2:53 am 02:53 Clear 9 -12.8 7 -13.9 92 92 SW 18 30 30.45 1031 8 13 N/A
3:53 am 03:53 Clear 8 -13.3 5 -15 87 87 SW 16 26 30.45 1031 9 14 N/A
4:53 am 04:53 Clear 8 -13.3 5 -15 87 87 SW 15 24 30.44 1031 9 14 N/A
5:53 am 05:53 Clear 10 -12.2 6 -14.4 84 84 SW 22 35 30.42 1030 10 16 N/A
6:53 am 06:53 Clear 10 -12.2 5 -15 80 80 SW 16 26 30.42 1030 10 16 N/A
7:53 am 07:53 Sunny 10 -12.2 5 -15 80 80 WSW 12 19 30.44 1031 10 16 N/A
8:53 am 08:53 Sunny 13 -10.6 6 -14.4 74 74 SW 10 17 30.45 1031 10 16 N/A
9:53 am 09:53 Sunny 19 -7.2 9 -12.8 65 65 W 10 17 30.45 1031 10 16 N/A
10:53 am 10:53 Sunny 22 -5.6 12 -11.1 66 66 W 9 15 30.45 1031 10 16 N/A
11:53 am 11:53 Sunny 24 -4.4 12 -11.1 60 60 WNW 10 17 30.45 1031 10 16 N/A
12:53 pm 12:53 Sunny 26 -3.3 12 -11.1 55 55 NW 7 11 30.45 1031 10 16 N/A
1:53 pm 13:53 Sunny 26 -3.3 12 -11.1 55 55 NW 13 20 30.45 1031 10 16 N/A
2:53 pm 14:53 Sunny 26 -3.3 13 -10.6 57 57 WNW 10 17 30.47 1032 10 16 N/A
3:53 pm 15:53 Mostly Cloudy 23 -5 13 -10.6 65 65 NE 10 17 30.50 1033 10 16 N/A
4:53 pm 16:53 Mostly Cloudy 19 -7.2 10 -12.2 68 68 NE 13 20 30.54 1034 10 16 N/A
5:46 pm 17:46 Partly Cloudy 16 -9 9 -13 73 73 NE 10 17 30.59 1036 10 16 N/A
5:53 pm 17:53 Mostly Clear 15 -9.4 8 -13.3 74 74 NE 10 17 30.57 1035 10 16 N/A
6:53 pm 18:53 Clear 13 -10.6 7 -13.9 77 77 ENE 10 17 30.60 1036 10 16 N/A
7:53 pm 19:53 Clear 11 -11.7 7 -13.9 84 84 E 8 13 30.62 1037 10 16 N/A
8:53 pm 20:53 Clear 11 -11.7 6 -14.4 81 81 E 9 15 30.63 1037 10 16 N/A
9:53 pm 21:53 Clear 10 -12.2 4 -15.6 76 76 ENE 10 17 30.62 1037 10 16 N/A
10:53 pm 22:53 Clear 8 -13.3 4 -15.6 83 83 ENE 10 17 30.61 1037 10 16 N/A
11:53 pm 23:53 Clear 8 -13.3 3 -16.1 80 80 ENE 9 15 30.60 1036 10 16 N/A

Powered by AerisWeather